Theta_e
345 345 346 347 347 348 348 350 348 349 348 348 347 347 347 348 348 348 348 348 350 347 345 346 347 346 349 346 347 347 346 346 345 345 345 345 343 344 344 345 343 346 348 348 348 347 346 346 348 348 348 348 346 340 341 342 342 343 342 343 344 343
345 344 345 346 348 348 349 348 347 347 346 346 347 347 346 345 348 344 348 348 347 348 346 345 345 349 346 346 346 347 346 346 345 345 345 345 344 343 344 344 344 343 345 348 348 340 344 348 347 348 348 347 341 339 339 341 341 341 342 342 344 344
345 344 344 345 347 348 348 348 347 347 347 348 346 346 344 345 343 343 345 346 347 346 344 345 345 347 347 347 346 347 347 346 346 345 345 345 345 344 344 343 344 342 343 347 342 339 340 340 340 349 347 342 340 339 340 341 340 340 340 342 341 346
346 345 343 344 345 347 347 347 346 346 346 345 344 344 342 341 341 341 342 342 343 345 344 343 350 351 351 345 345 348 347 346 346 346 345 345 345 344 344 343 344 343 345 344 336 338 339 340 340 340 339 338 338 338 338 339 339 341 341 344 342 345
347 345 344 344 345 345 346 345 345 345 345 344 343 341 340 339 338 338 339 340 340 343 343 343 344 346 345 344 342 342 342 341 340 339 345 336 336 340 339 338 335 340 335 336 333 334 335 338 339 339 337 339 339 338 338 341 339 339 340 341 342 344
346 346 346 345 345 345 345 344 343 344 344 343 342 340 340 338 336 336 335 338 337 338 338 341 341 343 342 343 342 341 340 339 337 338 342 336 335 334 336 335 329 331 331 332 330 330 331 339 336 336 337 339 340 337 339 339 339 339 339 340 342 344
343 347 347 346 345 345 343 344 344 344 343 343 342 341 340 339 335 334 335 336 334 333 334 336 338 341 340 342 341 340 339 339 338 337 338 336 335 335 334 330 328 327 327 326 327 328 329 337 336 336 336 340 341 340 339 339 339 339 338 339 342 343
342 345 347 347 345 344 343 343 344 344 344 344 342 342 341 340 338 334 335 335 335 333 333 334 336 338 339 341 340 340 339 338 338 336 338 336 335 334 332 330 328 328 328 327 326 327 327 338 335 336 337 339 340 339 338 339 338 338 338 338 340 342
343 343 347 348 346 344 343 343 344 344 343 346 343 343 343 341 338 335 335 334 335 333 332 335 333 335 337 339 340 339 339 338 337 335 337 335 334 334 333 330 329 328 328 327 326 326 326 335 334 334 336 338 338 338 338 339 338 337 336 336 338 340
344 343 346 348 346 344 343 343 344 344 343 344 343 344 343 341 338 335 334 333 335 334 332 334 332 334 334 336 338 338 338 336 336 335 336 334 333 333 333 331 329 327 327 328 327 327 331 333 333 335 336 337 336 337 337 338 337 336 336 335 336 338
346 344 346 347 346 345 343 343 344 345 344 344 344 344 343 341 337 336 335 335 336 337 333 334 334 333 332 334 336 336 336 336 334 334 336 335 334 332 334 334 330 328 327 328 329 334 332 332 334 335 337 336 335 336 337 337 336 335 335 334 334 334
346 345 346 346 346 345 344 344 345 345 344 344 344 344 342 340 338 337 338 336 338 337 336 334 335 334 332 332 335 336 337 335 334 334 337 336 333 332 333 336 334 331 331 332 333 334 334 334 334 336 336 335 335 335 335 335 335 333 333 332 332 331
346 346 345 345 345 346 345 345 345 344 344 345 344 343 340 337 336 338 339 338 338 339 338 337 336 336 335 333 335 336 337 338 336 337 338 335 333 331 334 335 333 335 332 337 338 337 338 335 335 336 336 336 335 335 335 335 335 333 332 331 330 329
346 344 345 345 343 345 344 345 344 344 344 344 343 342 339 336 337 337 337 338 338 338 339 339 341 336 335 335 336 336 336 337 337 338 338 335 333 335 336 335 335 335 341 338 336 336 336 335 335 335 335 338 337 335 336 335 336 336 332 330 329 328
345 344 345 343 343 344 343 344 343 343 343 344 342 341 339 338 337 337 337 337 339 337 339 340 342 339 338 337 337 336 336 336 338 338 334 336 336 335 334 333 333 334 336 337 337 337 336 336 336 335 335 337 337 337 336 335 336 335 333 329 328 327
343 343 343 343 342 344 343 343 342 346 343 342 341 340 339 338 337 338 337 336 338 338 338 339 341 340 339 337 337 336 335 336 337 336 334 337 336 332 331 335 334 334 334 334 337 336 336 335 335 335 335 336 336 337 335 333 333 333 331 328 327 326
343 342 342 343 342 342 342 341 341 343 343 341 340 339 338 338 336 337 337 337 338 338 338 339 340 340 339 337 336 335 335 336 336 334 335 335 334 335 334 335 333 333 334 334 335 335 334 334 333 334 334 334 334 334 332 332 331 331 332 327 327 326
343 343 343 343 342 342 342 341 340 342 342 341 340 339 338 338 335 335 337 337 338 338 338 338 339 339 338 339 335 334 335 335 336 334 337 335 333 333 333 334 333 333 336 335 334 334 334 333 334 333 332 333 332 331 330 331 331 335 323 327 326 325
343 342 342 343 341 342 342 340 340 341 341 340 339 339 337 335 335 334 337 338 338 338 338 337 338 338 337 338 336 334 335 338 337 337 341 337 337 334 333 334 334 332 334 335 335 335 335 334 334 333 331 330 329 330 331 331 332 328 322 324 323 325
342 342 342 342 341 340 340 338 337 339 339 339 338 338 337 335 335 333 338 338 338 337 337 336 338 337 337 338 339 336 337 342 340 339 340 339 335 334 333 333 333 332 333 333 335 335 334 333 330 329 328 328 330 329 330 329 329 327 323 322 322 320
342 342 341 340 339 339 338 336 336 337 337 338 337 337 337 336 334 333 337 338 337 337 335 336 338 337 336 342 341 341 342 343 343 341 340 339 334 334 333 333 333 332 332 331 331 333 334 332 329 324 325 325 324 329 333 330 329 327 322 320 320 317
341 341 341 341 340 339 339 337 336 335 337 337 337 336 335 336 334 334 336 337 337 336 334 336 338 339 338 340 341 341 342 343 342 342 341 341 336 336 335 334 333 331 331 331 331 334 334 330 323 323 321 319 321 322 326 326 328 329 325 321 319 318
340 340 341 341 339 338 339 338 336 334 336 337 338 338 337 337 336 333 335 337 337 336 333 337 338 340 340 341 341 341 342 343 341 341 341 341 338 335 335 334 331 330 329 329 329 333 332 329 324 323 322 321 316 317 318 321 324 326 327 321 319 318
340 340 340 340 340 339 339 338 337 336 337 338 336 337 337 336 336 332 332 337 337 337 333 335 340 339 342 342 341 341 342 343 342 341 341 340 338 335 334 332 331 330 331 328 328 330 332 332 327 324 318 317 316 315 312 316 320 322 326 324 319 317
340 339 339 340 340 339 339 338 337 337 338 337 336 335 334 334 335 332 331 336 336 339 334 335 339 340 340 341 341 342 342 342 342 342 341 340 339 337 334 333 333 331 331 329 326 327 330 332 328 328 323 319 316 314 314 316 318 319 323 323 321 317
340 339 339 339 340 339 338 337 335 333 333 333 331 331 330 331 333 329 329 335 338 340 337 336 338 339 339 340 341 341 342 342 341 342 341 341 340 339 336 334 334 333 331 330 329 327 327 331 331 329 328 325 321 316 315 318 318 313 320 324 322 320
340 340 340 339 340 340 338 337 336 334 334 333 332 332 333 333 334 330 329 333 338 338 339 338 338 338 338 339 341 341 341 341 342 342 342 340 340 339 338 337 336 334 332 331 330 327 327 328 329 331 331 329 329 326 324 319 315 313 312 317 320 318
340 340 340 340 340 340 338 337 336 335 335 333 333 332 332 333 335 331 328 331 335 338 339 338 338 338 337 338 341 341 342 341 341 342 342 341 340 341 339 339 338 336 334 332 330 328 327 329 328 328 331 328 328 328 327 323 320 317 313 313 315 318
340 340 341 340 340 340 339 338 337 336 334 334 334 335 334 334 335 332 329 330 332 337 338 338 338 337 337 337 340 341 341 341 341 342 342 341 340 341 340 338 337 336 335 332 330 328 328 328 329 328 328 327 328 326 326 325 324 322 315 312 313 315
340 340 341 340 340 340 340 339 337 336 335 334 334 336 335 334 336 333 329 330 330 334 336 336 337 337 337 337 338 341 341 341 340 341 341 341 340 341 341 339 337 337 336 332 331 330 328 329 330 330 329 328 326 324 323 324 322 320 318 318 313 313
340 341 341 340 340 339 340 339 338 337 336 334 333 335 334 333 335 334 331 331 330 332 335 336 336 336 337 337 337 340 341 341 340 340 340 340 339 340 341 340 338 337 336 334 332 332 330 331 331 330 329 328 327 326 324 322 321 321 319 315 314 313
340 340 341 341 340 340 340 339 338 338 336 335 334 334 335 333 333 335 333 332 331 331 333 335 335 335 335 336 336 338 340 340 340 340 338 339 339 339 341 340 339 337 336 335 335 333 332 331 330 329 329 329 328 327 325 324 323 322 320 317 316 314
339 340 341 341 340 340 339 339 339 338 337 336 335 335 335 335 334 336 335 333 332 331 332 332 334 334 334 335 336 336 337 338 339 339 339 338 338 339 341 340 339 337 336 335 334 333 332 331 330 329 329 329 329 327 326 325 324 323 321 319 318 314
339 340 341 341 340 339 339 340 340 339 338 337 336 335 335 336 336 336 337 335 333 332 332 332 333 334 335 335 336 337 337 338 339 340 339 339 338 338 341 340 339 337 336 336 335 333 332 331 330 331 330 329 329 328 327 327 325 324 323 321 316 316
340 340 341 341 340 339 339 340 340 340 339 338 337 336 336 337 338 336 338 337 336 334 333 333 334 335 336 336 336 338 338 338 338 339 339 339 338 338 340 340 338 338 337 336 335 333 332 332 331 331 330 330 329 329 328 326 326 325 324 323 320 318
341 341 341 341 341 340 340 340 341 340 339 338 338 338 337 337 339 339 338 339 338 336 335 335 335 336 336 337 336 338 338 338 339 339 339 339 338 337 339 338 338 337 336 337 335 334 333 333 332 332 331 330 328 328 328 327 327 326 324 324 324 321
341 342 342 341 342 342 341 340 341 341 340 339 338 338 337 337 338 339 339 339 339 338 337 336 337 338 337 337 337 338 339 338 338 339 338 338 338 337 338 337 337 336 335 336 335 334 333 333 332 332 331 329 328 327 327 327 327 327 327 325 325 323
Wind_Speed
8 9 8 8 7 7 10 15 14 15 17 16 15 16 16 16 14 13 12 13 12 9 6 7 10 8 13 9 12 12 11 11 10 9 8 5 3 3 3 4 4 4 3 4 3 2 2 3 5 7 8 9 8 4 3 4 5 5 5 4 5 6
8 9 9 7 6 6 7 10 7 8 8 11 13 13 11 8 10 6 13 10 6 7 6 6 6 10 6 8 10 13 11 11 10 10 8 5 3 2 2 3 3 3 4 3 4 1 1 3 4 6 8 9 5 3 3 4 4 5 5 4 5 8
9 9 9 7 7 6 7 6 7 7 6 9 9 8 6 8 6 7 6 7 6 6 6 6 6 8 6 12 10 13 12 12 11 10 9 6 4 3 2 2 3 3 4 4 2 2 3 2 2 6 7 5 4 3 3 4 6 5 4 4 4 11
11 10 9 7 7 7 6 6 5 6 5 6 6 6 6 6 6 6 7 6 6 7 7 6 10 16 14 8 8 13 13 12 12 10 9 6 4 3 4 3 3 3 4 3 2 4 3 3 4 3 4 3 4 4 3 2 6 5 5 5 4 12
9 9 9 8 8 7 7 7 6 6 6 6 5 6 6 6 6 7 6 6 7 7 7 7 6 6 6 7 6 5 6 5 4 4 7 3 2 2 3 3 3 3 3 4 4 5 3 4 3 5 5 4 4 4 2 4 5 5 4 4 5 11
9 9 9 8 8 9 9 7 7 7 7 6 6 6 6 6 6 7 6 7 7 7 7 7 6 7 6 7 7 5 5 5 4 4 4 5 4 3 3 4 3 4 5 5 5 4 4 3 5 3 4 6 5 3 3 5 5 5 5 5 6 11
8 9 9 8 8 8 8 8 7 7 8 7 6 6 7 7 6 8 7 7 6 6 6 7 7 7 7 8 7 6 6 6 6 5 5 5 4 4 5 5 5 5 6 5 4 5 4 4 4 5 3 5 5 4 4 5 5 5 5 5 6 12
8 9 8 8 9 8 8 9 8 9 9 9 8 7 7 7 6 8 8 7 6 6 6 6 7 7 7 7 8 8 7 6 6 5 6 6 5 5 5 6 5 6 6 6 6 6 5 6 5 5 4 4 5 5 4 5 5 5 5 5 5 10
10 11 9 9 8 8 9 8 8 8 8 9 8 8 7 7 6 8 8 8 7 7 6 6 7 7 7 8 8 8 7 7 6 6 6 6 6 6 6 6 6 6 6 6 5 6 4 7 6 5 5 6 6 6 5 5 5 5 5 5 5 8
11 12 10 10 8 9 10 8 10 9 8 9 9 9 7 7 6 8 8 8 9 7 6 6 7 7 8 8 9 8 8 7 7 6 6 6 6 6 7 6 6 6 7 6 7 4 6 9 7 6 5 6 6 6 5 5 5 5 5 5 5 6
12 12 9 12 9 10 10 8 10 9 8 9 9 8 7 7 6 8 8 9 8 8 7 6 7 6 7 7 7 7 7 7 6 6 7 7 6 7 7 7 6 7 6 8 1 7 9 8 7 7 6 6 6 6 5 5 5 5 5 5 4 4
12 12 9 12 10 10 10 8 10 9 8 9 9 8 7 7 7 8 8 8 7 8 7 6 7 6 6 6 5 6 7 7 7 6 7 7 8 8 7 8 8 7 7 3 6 6 7 8 7 7 7 7 6 6 6 5 5 6 5 4 5 4
13 11 11 11 10 9 9 8 9 10 8 9 8 8 7 7 8 7 8 7 7 7 7 6 6 7 7 6 5 6 7 7 8 6 8 9 10 8 7 6 7 3 4 5 7 6 5 5 7 7 7 7 6 6 6 5 5 6 6 6 5 5
12 13 12 11 8 9 10 7 9 9 9 10 8 8 6 7 7 7 7 7 7 6 6 5 5 6 6 6 6 6 5 5 6 6 7 8 8 7 7 4 1 6 6 6 6 7 6 5 4 5 6 7 6 7 6 6 5 5 6 6 6 6
11 13 12 11 8 9 8 6 9 8 8 9 8 7 6 6 6 7 7 7 7 6 6 5 4 6 6 6 6 5 5 5 4 4 5 6 6 6 6 2 5 6 6 5 5 5 6 6 6 5 5 5 6 6 6 6 5 5 5 6 6 6
13 14 13 11 7 7 8 7 7 7 7 6 7 7 6 6 6 6 6 6 6 6 6 5 4 5 6 6 6 6 6 5 4 4 5 4 4 5 3 6 3 6 7 5 5 5 5 6 5 6 4 4 5 6 6 6 6 6 5 7 7 6
16 15 13 11 7 5 7 8 7 8 8 7 7 7 6 6 6 6 7 7 6 7 6 5 4 5 5 5 6 6 6 6 5 5 5 5 4 1 3 6 2 2 6 6 6 5 4 6 5 4 4 4 4 4 3 4 5 5 5 9 8 7
14 14 12 11 8 7 7 7 7 7 7 7 7 7 6 6 6 6 7 7 8 7 7 6 5 5 6 5 5 6 6 6 6 6 6 6 3 2 5 5 3 0 4 6 5 7 6 5 5 5 3 4 4 3 3 3 4 4 6 8 8 8
14 13 12 11 8 6 6 5 6 7 8 7 6 7 6 6 6 6 7 8 9 8 8 7 6 6 7 5 5 6 7 6 6 6 6 5 4 3 3 5 3 2 2 4 6 6 7 6 5 4 4 3 3 3 3 3 4 4 5 7 7 8
13 13 11 10 9 7 6 6 8 6 8 7 7 7 6 6 6 7 7 9 9 8 8 7 6 7 7 6 6 7 7 6 7 7 7 6 4 2 4 5 5 5 4 2 1 4 5 6 4 4 3 1 1 2 3 2 2 4 4 6 7 8
14 13 12 12 11 10 9 7 6 7 9 8 8 8 7 6 7 8 7 9 9 8 9 8 7 7 8 7 6 6 7 7 7 7 7 7 7 5 3 4 6 3 5 4 2 3 5 7 7 3 2 1 1 1 1 1 0 2 4 5 7 7
14 15 15 15 14 12 11 11 10 8 8 8 9 9 8 6 7 8 8 10 10 9 10 9 8 7 9 8 6 6 7 7 7 7 7 7 9 7 6 4 5 4 3 6 5 5 7 7 3 6 6 2 1 2 1 2 1 1 3 3 4 7
15 16 15 13 12 13 10 8 7 5 8 7 7 8 8 6 7 8 8 10 10 10 11 9 9 8 9 8 7 7 7 7 7 7 7 7 9 9 8 8 7 7 5 2 2 4 7 5 5 4 3 5 1 2 3 2 3 2 3 4 3 4
16 15 13 14 13 12 11 8 5 5 5 8 7 7 7 5 7 8 8 10 9 10 11 10 9 9 8 9 9 8 7 7 7 7 7 8 10 10 9 8 7 6 7 6 3 5 5 4 4 10 5 3 3 3 1 7 7 5 4 4 5 6
17 16 14 14 14 12 10 8 7 4 4 6 5 7 7 7 7 9 8 9 10 10 12 11 9 10 9 9 9 8 8 8 8 7 7 8 8 10 10 9 9 8 9 8 7 4 5 5 4 5 7 5 2 1 5 3 4 6 2 3 5 6
13 13 13 15 14 13 12 12 10 10 9 10 10 10 12 12 9 10 11 6 11 11 11 11 10 9 10 8 9 9 8 9 9 8 8 8 7 8 9 8 9 8 9 7 10 7 7 5 5 6 4 5 7 6 4 3 5 5 3 4 4 6
15 14 13 14 15 12 12 12 14 14 12 12 12 10 8 8 6 7 7 8 10 10 11 12 10 10 9 8 8 9 9 9 9 8 7 7 8 9 9 10 9 7 8 8 7 8 9 9 4 6 6 6 2 1 5 6 5 2 2 3 3 5
14 14 14 14 16 15 14 14 13 13 12 11 11 10 10 9 6 8 9 9 8 10 10 11 10 10 9 9 9 9 9 8 9 9 9 8 9 8 8 8 10 10 8 8 10 9 8 8 10 7 7 7 5 2 5 4 4 7 5 6 6 3
16 15 14 16 16 16 14 15 15 12 11 10 9 7 8 8 7 8 10 8 8 9 10 10 10 10 10 10 9 10 10 9 9 10 9 8 8 9 10 10 10 9 9 8 9 7 8 9 9 8 7 7 6 5 4 5 4 4 3 4 5 7
17 14 14 16 16 17 16 13 12 13 14 12 10 8 8 10 8 8 10 10 9 8 9 9 10 10 10 11 10 10 10 11 9 10 9 10 9 9 9 10 12 11 10 10 8 8 9 8 9 8 8 7 7 5 4 4 3 4 2 5 6 7
17 15 15 17 17 18 15 15 15 16 15 13 14 12 9 10 9 8 11 11 11 10 8 9 9 9 10 10 10 10 11 11 10 8 10 10 10 9 9 10 10 11 11 12 9 9 7 7 8 8 8 8 9 8 8 7 7 5 4 3 3 4
16 16 15 16 17 16 15 16 16 16 15 14 13 12 13 13 13 12 12 12 10 9 9 9 9 9 10 10 9 10 11 11 10 9 10 9 10 9 9 9 8 9 9 9 9 9 8 8 9 8 8 7 7 7 6 6 6 6 7 6 6 5
18 17 17 17 18 18 16 16 16 16 15 14 14 14 13 12 12 11 10 10 11 11 10 10 11 11 12 12 9 10 10 11 10 11 10 9 10 10 10 9 9 10 9 10 9 10 9 10 10 10 9 7 7 7 7 6 5 6 6 6 6 5
20 19 18 18 19 19 19 17 17 16 15 14 14 14 13 12 13 12 10 12 12 12 12 14 13 13 12 12 10 9 10 10 9 10 10 9 10 10 11 10 10 10 11 9 8 10 10 10 9 9 7 8 7 7 7 6 6 6 6 6 5 6
17 17 17 17 17 19 18 18 16 15 14 13 13 13 13 11 12 13 12 12 12 11 12 12 13 11 11 12 12 9 10 11 9 10 10 10 8 9 11 10 10 11 10 9 10 10 9 10 10 9 8 8 8 7 7 6 6 6 6 7 6 6
20 20 19 18 18 18 18 17 17 15 15 14 13 12 11 10 10 13 13 13 12 12 12 10 10 10 12 12 12 11 10 11 10 9 10 10 10 8 10 11 10 10 10 8 10 11 10 10 10 10 9 7 7 8 7 7 6 6 6 6 6 6
21 19 20 21 20 18 18 18 18 16 14 14 14 13 13 15 15 13 13 13 12 12 10 10 10 10 12 12 11 11 11 11 11 10 9 10 10 9 9 10 10 11 11 9 9 11 9 10 9 9 8 8 8 7 6 6 5 6 6 6 6 6
Wind_Direction
142 144 141 140 146 150 155 157 159 159 159 158 159 159 156 156 158 161 161 163 163 157 156 148 153 149 153 149 150 153 156 155 154 150 156 165 166 166 135 127 121 111 104 114 125 137 133 123 98 98 92 81 72 56 44 30 63 87 83 91 101 110
148 151 149 147 148 154 155 159 155 162 162 162 163 161 159 157 159 162 163 159 152 154 146 146 147 153 146 151 154 160 162 162 155 158 155 161 176 174 171 145 135 138 132 134 155 174 201 156 128 107 100 88 78 83 50 33 69 89 92 93 101 118
155 156 154 150 152 154 158 158 163 161 165 165 169 164 161 161 156 161 153 147 145 140 143 147 152 154 149 157 162 164 167 164 164 161 157 160 172 202 222 203 179 162 152 166 189 226 223 192 137 122 102 92 101 83 50 48 94 97 104 108 109 124
159 159 156 156 155 153 159 162 167 166 168 169 171 167 169 168 167 167 160 152 148 150 154 156 171 167 164 159 170 167 171 171 169 163 164 164 179 211 235 248 226 201 158 179 199 226 222 194 158 123 104 109 96 76 54 76 107 110 117 121 120 125
158 160 163 162 159 160 162 164 169 174 172 173 177 177 179 178 174 173 165 167 163 158 161 167 175 164 149 152 156 148 163 165 160 159 164 139 160 207 227 245 241 217 191 197 207 230 225 198 139 135 129 120 108 81 61 92 108 110 116 116 126 127
160 170 172 167 164 166 169 169 173 176 176 181 181 185 185 185 181 178 171 176 169 165 159 168 168 162 148 146 152 148 156 162 160 165 164 162 179 200 206 227 225 213 222 202 205 221 221 167 146 135 139 118 112 101 90 99 109 113 115 121 125 126
166 171 178 167 165 171 175 172 176 177 176 183 190 188 193 191 184 181 178 178 173 172 165 159 164 163 152 151 154 161 164 170 173 174 171 173 188 200 203 215 230 229 225 211 205 214 202 144 150 150 150 122 114 121 100 113 118 119 118 118 130 130
172 173 182 171 169 179 180 176 180 180 181 185 190 199 197 195 179 181 178 181 177 179 169 157 164 163 162 155 160 167 172 173 176 179 177 174 188 209 202 214 221 233 232 221 211 205 187 150 161 149 155 125 125 117 121 129 124 123 126 129 132 139
179 178 178 177 174 182 187 180 179 184 179 184 192 202 201 193 178 180 178 179 183 183 173 163 167 169 164 161 163 168 173 177 179 182 173 180 185 205 211 210 217 226 234 232 214 221 171 146 161 140 157 146 135 132 147 140 134 133 133 134 138 141
184 186 177 178 183 183 190 184 180 188 175 184 192 199 198 193 183 179 180 179 185 184 177 164 167 169 169 160 168 168 173 178 183 176 173 183 191 200 216 211 213 222 237 241 224 210 138 160 150 145 163 151 136 142 154 147 138 137 135 134 143 143
189 190 177 182 183 187 191 187 181 185 180 185 191 196 194 193 184 184 182 179 182 184 175 159 157 166 169 162 163 164 172 178 184 181 179 189 188 203 214 218 201 215 224 233 326 119 145 144 147 158 156 151 146 144 152 150 138 140 141 138 123 114
192 193 184 183 183 189 193 189 180 185 182 186 189 194 195 188 189 182 182 178 171 168 169 156 153 170 168 168 168 175 175 174 192 181 185 185 197 205 205 219 213 213 216 112 115 115 136 141 153 150 149 151 149 148 157 157 150 154 139 130 127 124
190 194 192 184 185 191 192 187 180 183 183 182 189 192 189 182 183 172 171 169 157 156 157 151 156 172 172 173 180 180 169 176 190 181 179 184 195 206 212 219 222 211 92 109 98 105 113 142 139 147 144 148 151 156 164 164 162 154 146 146 143 140
199 192 193 189 182 188 191 184 179 179 181 179 189 188 184 170 172 164 162 162 154 158 155 156 155 184 168 168 181 182 166 156 161 162 156 172 192 198 200 167 166 80 100 101 119 120 128 123 130 132 141 150 154 163 164 172 176 167 151 153 148 145
207 189 192 190 185 186 185 176 177 172 176 176 177 180 170 161 168 167 162 160 157 162 159 165 159 178 174 168 169 169 165 162 159 144 149 161 178 196 178 125 94 106 101 104 110 126 129 134 148 151 159 155 156 157 163 178 185 179 162 149 149 155
206 185 191 190 188 180 182 175 167 170 169 164 172 178 161 164 164 164 165 166 162 161 168 169 168 177 163 168 158 161 162 154 162 143 158 150 146 183 143 79 95 134 115 110 122 122 127 136 139 151 149 162 161 158 158 178 185 190 153 151 160 161
193 184 187 186 182 176 168 176 168 166 167 163 170 179 163 167 170 160 170 169 170 166 172 176 175 183 165 156 157 158 166 159 163 153 156 154 150 154 122 106 92 141 123 139 135 136 138 137 144 142 153 153 173 164 171 182 198 202 157 160 166 163
182 182 182 182 178 176 174 173 170 164 168 168 175 178 177 164 181 166 166 170 169 169 178 182 178 183 173 153 159 162 167 169 159 156 149 153 137 123 105 103 111 30 119 130 143 145 152 145 138 143 149 163 166 166 194 208 212 201 168 166 165 162
178 181 180 177 173 176 177 172 174 156 173 173 178 184 184 176 184 169 170 170 170 173 180 181 179 180 170 165 162 169 167 169 158 156 142 147 137 182 137 116 133 133 82 122 151 160 153 145 140 141 154 178 164 188 222 219 176 175 166 159 160 160
176 180 176 173 171 177 178 178 181 158 177 182 180 185 197 187 182 180 173 171 176 173 178 181 177 178 170 177 170 177 168 160 155 153 148 134 140 168 159 136 148 143 121 97 127 146 137 128 114 127 147 146 215 225 229 192 135 146 160 148 149 151
176 177 177 175 178 181 183 184 188 176 182 182 183 185 197 195 181 189 170 174 176 173 176 181 180 173 179 183 178 164 155 161 155 160 162 152 162 181 186 162 143 141 143 137 176 174 151 136 133 91 51 65 40 30 45 108 76 125 160 176 156 157
171 180 185 183 178 182 188 191 187 181 175 181 182 186 196 192 190 190 170 174 175 174 176 179 182 174 181 185 175 165 158 162 162 164 168 149 156 175 179 170 152 148 180 155 170 176 162 130 143 157 146 113 5 336 336 7 326 137 198 208 181 156
176 181 187 184 179 185 184 181 178 172 170 180 190 187 189 181 188 193 174 174 175 175 177 178 182 174 180 186 181 165 167 164 168 164 161 159 150 167 179 173 170 160 164 151 146 180 173 177 144 127 111 101 170 191 311 338 299 240 190 200 222 167
179 182 180 184 185 181 178 171 166 158 164 174 183 188 192 183 184 197 185 175 178 177 178 181 181 181 178 182 179 172 167 168 172 172 171 170 158 166 173 175 170 171 160 155 172 193 193 188 141 139 153 181 174 123 262 246 227 256 163 202 198 204
177 180 182 182 179 171 168 174 164 159 152 167 169 187 197 210 193 195 189 176 180 178 180 183 181 183 181 176 178 170 168 173 172 175 175 176 166 169 177 179 180 168 179 167 178 173 203 199 192 196 137 125 93 195 219 221 162 263 214 202 218 205
174 177 181 180 175 170 178 179 177 183 181 185 186 190 199 203 193 193 193 171 178 179 180 183 185 181 184 174 178 175 170 173 179 176 176 178 169 162 173 177 191 179 176 183 171 163 184 212 200 218 225 184 160 175 182 185 122 240 258 215 205 204
176 181 180 176 175 176 177 185 190 194 191 187 188 199 197 199 187 190 181 177 176 179 181 182 187 184 181 179 176 179 172 176 179 180 173 173 177 173 175 180 186 190 184 167 162 175 183 188 199 237 224 236 224 187 135 126 197 102 189 263 234 206
177 177 179 178 179 180 182 186 190 196 197 192 192 192 191 194 176 178 182 182 170 181 182 184 184 187 184 178 179 180 179 173 178 180 175 180 183 180 173 181 182 192 185 169 175 178 185 182 188 209 206 223 237 216 162 171 151 169 160 176 233 262
180 177 179 180 181 184 187 187 190 190 196 203 185 172 185 186 179 179 180 184 178 178 184 187 185 186 188 185 181 182 183 181 179 180 180 182 182 180 180 178 182 184 187 184 181 180 173 190 195 201 183 219 220 224 206 208 175 156 137 164 226 209
181 179 179 182 185 185 188 187 188 193 198 196 185 171 173 188 186 181 183 185 186 181 184 186 190 189 190 191 185 182 184 188 184 181 179 182 182 183 185 182 182 185 183 185 191 181 183 189 196 199 194 189 197 202 207 231 205 179 186 171 177 203
181 180 181 184 185 185 187 189 192 195 197 192 186 175 171 191 188 187 190 187 189 189 184 188 191 196 195 193 189 186 186 188 188 179 180 179 186 185 186 184 181 184 182 181 189 191 191 184 186 193 195 186 199 192 193 190 205 194 175 184 174 204
182 183 184 185 187 188 187 193 195 195 195 191 182 183 184 190 194 194 194 189 187 183 190 191 193 197 200 196 189 189 187 187 189 186 183 182 184 184 182 179 179 181 186 182 181 185 185 185 185 192 198 194 197 195 194 195 198 188 191 205 178 196
184 185 186 185 187 188 189 195 196 196 197 189 184 188 189 189 196 196 193 188 185 190 186 192 198 198 201 198 190 188 188 188 188 191 187 182 184 180 178 178 178 184 184 182 178 179 181 187 184 188 200 201 194 195 203 204 191 193 194 190 177 187
187 186 186 187 189 189 191 195 199 198 194 187 186 187 191 192 193 198 191 193 191 190 191 196 194 199 195 196 197 192 190 189 182 186 189 187 184 180 177 177 178 183 188 187 179 181 184 183 185 191 185 190 200 200 208 195 199 191 181 170 189 195
189 189 188 190 189 192 193 195 200 200 193 189 185 187 193 196 192 194 196 193 193 192 196 198 197 195 187 196 197 190 192 190 182 182 187 189 184 178 176 175 178 183 186 184 184 182 186 182 187 189 189 190 196 203 204 203 188 203 185 182 169 175
186 187 190 190 193 194 193 195 199 197 194 189 187 187 193 198 202 196 197 194 193 194 199 196 196 190 195 194 196 192 190 193 186 181 186 190 189 178 176 174 178 179 185 185 182 184 187 186 191 189 189 186 185 205 204 205 201 207 201 190 186 177
190 190 190 191 192 192 193 195 198 197 192 190 188 187 191 200 203 199 194 196 195 196 192 192 193 192 194 196 195 194 191 191 190 185 182 190 190 183 177 175 177 180 186 187 182 187 183 187 192 186 186 187 192 197 208 209 213 211 210 197 186 177